| time (UTC) | temp F | wind direction | speed MPH | gust MPH | rain 1hr in | rain 24hr in | rain mn in | humidity % | barometer mb |
| 20260905221545 | 97 | 210 | 1.0 | 3.0 | 0.00 | 0.00 | 0.00 | 27 | 1010.3 |
| 20260905220044 | 97 | 0 | 1.0 | 4.0 | 0.00 | 0.00 | 0.00 | 28 | 1010.3 |
| 20260905214545 | 98 | 38 | 0.0 | 3.0 | 0.00 | 0.00 | 0.00 | 27 | 1010.6 |
| 20260905213046 | 97 | 229 | 1.0 | 3.0 | 0.00 | 0.00 | 0.00 | 27 | 1010.7 |
| 20260905211543 | 98 | 219 | 1.0 | 4.0 | 0.00 | 0.00 | 0.00 | 27 | 1010.9 |
| 20260905210045 | 99 | 193 | 0.0 | 4.0 | 0.00 | 0.00 | 0.00 | 27 | 1011.1 |
| 20260905204548 | 99 | 176 | 1.0 | 4.0 | 0.00 | 0.00 | 0.00 | 27 | 1011.2 |
| 20260905203044 | 99 | 158 | 1.0 | 5.0 | 0.00 | 0.00 | 0.00 | 27 | 1011.4 |
| 20260905201545 | 98 | 254 | 1.0 | 4.0 | 0.00 | 0.00 | 0.00 | 27 | 1011.6 |
| 20260905200052 | 96 | 225 | 1.0 | 3.0 | 0.00 | 0.00 | 0.00 | 28 | 1012.0 |
| 20260905194547 | 97 | 229 | 1.0 | 4.0 | 0.00 | 0.00 | 0.00 | 30 | 1012.2 |
| 20260905193052 | 97 | 174 | 1.0 | 5.0 | 0.00 | 0.00 | 0.00 | 30 | 1012.4 |
| 20260905191544 | 96 | 272 | 1.0 | 4.0 | 0.00 | 0.00 | 0.00 | 30 | 1012.5 |
| 20260905190043 | 96 | 224 | 1.0 | 7.0 | 0.00 | 0.00 | 0.00 | 31 | 1012.7 |
| 20260905184546 | 95 | 221 | 2.0 | 4.0 | 0.00 | 0.00 | 0.00 | 31 | 1013.1 |
| 20260905183042 | 95 | 243 | 1.0 | 6.0 | 0.00 | 0.00 | 0.00 | 34 | 1013.3 |
| 20260905181541 | 94 | 203 | 2.0 | 5.0 | 0.00 | 0.00 | 0.00 | 33 | 1013.6 |
| 20260905180044 | 95 | 207 | 2.0 | 5.0 | 0.00 | 0.00 | 0.00 | 34 | 1013.9 |
| 20260905174542 | 95 | 225 | 1.0 | 5.0 | 0.00 | 0.00 | 0.00 | 34 | 1014.0 |
| 20260905173039 | 93 | 213 | 0.0 | 4.0 | 0.00 | 0.00 | 0.00 | 36 | 1014.1 |
| 20260905171540 | 93 | 246 | 1.0 | 4.0 | 0.00 | 0.00 | 0.00 | 37 | 1014.3 |
| 20260905170047 | 91 | 199 | 1.0 | 4.0 | 0.00 | 0.00 | 0.00 | 39 | 1014.4 |
| 20260905164541 | 91 | 0 | 1.0 | 4.0 | 0.00 | 0.00 | 0.00 | 39 | 1014.5 |
| 20260905163041 | 91 | 0 | 0.0 | 2.0 | 0.00 | 0.00 | 0.00 | 39 | 1014.6 |
| 20260905161541 | 91 | 174 | 0.0 | 2.0 | 0.00 | 0.00 | 0.00 | 39 | 1014.5 |
| 20260905160046 | 90 | 0 | 0.0 | 3.0 | 0.00 | 0.00 | 0.00 | 40 | 1014.5 |
| 20260905154542 | 89 | 0 | 0.0 | 0.0 | 0.00 | 0.00 | 0.00 | 44 | 1014.5 |
| 20260905153039 | 88 | 0 | 0.0 | 1.0 | 0.00 | 0.00 | 0.00 | 46 | 1014.5 |
| 20260905151549 | 87 | 0 | 0.0 | 1.0 | 0.00 | 0.00 | 0.00 | 47 | 1014.5 |
| 20260905150044 | 86 | 0 | 0.0 | 2.0 | 0.00 | 0.00 | 0.00 | 49 | 1014.4 |
| 20260905144547 | 85 | 96 | 0.0 | 3.0 | 0.00 | 0.00 | 0.00 | 53 | 1014.4 |
| 20260905143049 | 84 | 0 | 0.0 | 1.0 | 0.00 | 0.00 | 0.00 | 54 | 1014.4 |
| 20260905141542 | 82 | 0 | 0.0 | 1.0 | 0.00 | 0.00 | 0.00 | 57 | 1014.3 |
| 20260905140041 | 81 | 0 | 0.0 | 0.0 | 0.00 | 0.00 | 0.00 | 60 | 1014.4 |
| 20260905134539 | 80 | 0 | 0.0 | 0.0 | 0.00 | 0.00 | 0.00 | 61 | 1014.2 |
| 20260905133036 | 79 | 0 | 0.0 | 1.0 | 0.00 | 0.00 | 0.00 | 64 | 1014.2 |
| 20260905131548 | 78 | 0 | 0.0 | 1.0 | 0.00 | 0.00 | 0.00 | 67 | 1014.0 |
| 20260905130040 | 77 | 0 | 0.0 | 0.0 | 0.00 | 0.00 | 0.00 | 70 | 1013.9 |
| 20260905124543 | 75 | 0 | 0.0 | 0.0 | 0.00 | 0.00 | 0.00 | 69 | 1013.9 |
| 20260905123041 | 75 | 0 | 0.0 | 0.0 | 0.00 | 0.00 | 0.00 | 68 | 1013.7 |
| 20260905121539 | 75 | 0 | 0.0 | 0.0 | 0.00 | 0.00 | 0.00 | 67 | 1013.6 |
| 20260905120042 | 75 | 0 | 0.0 | 0.0 | 0.00 | 0.00 | 0.00 | 67 | 1013.5 |
| 20260905114545 | 75 | 0 | 0.0 | 0.0 | 0.00 | 0.00 | 0.00 | 67 | 1013.5 |
| 20260905113041 | 75 | 0 | 0.0 | 0.0 | 0.00 | 0.00 | 0.00 | 66 | 1013.4 |
| 20260905111548 | 76 | 0 | 0.0 | 0.0 | 0.00 | 0.00 | 0.00 | 66 | 1013.3 |
| 20260905110039 | 76 | 0 | 0.0 | 0.0 | 0.00 | 0.00 | 0.00 | 66 | 1013.4 |
| 20260905104538 | 76 | 0 | 0.0 | 0.0 | 0.00 | 0.00 | 0.00 | 65 | 1013.4 |
| 20260905103039 | 76 | 0 | 0.0 | 0.0 | 0.00 | 0.00 | 0.00 | 64 | 1013.5 |
| 20260905101547 | 77 | 0 | 0.0 | 0.0 | 0.00 | 0.00 | 0.00 | 64 | 1013.5 |
| 20260905100055 | 77 | 0 | 0.0 | 0.0 | 0.00 | 0.00 | 0.00 | 63 | 1013.5 |
| 20260905094547 | 78 | 0 | 0.0 | 0.0 | 0.00 | 0.00 | 0.00 | 62 | 1013.4 |
| 20260905093044 | 78 | 0 | 0.0 | 0.0 | 0.00 | 0.00 | 0.00 | 61 | 1013.1 |
| 20260905091540 | 79 | 0 | 0.0 | 0.0 | 0.00 | 0.00 | 0.00 | 60 | 1012.9 |
| 20260905090038 | 80 | 0 | 0.0 | 0.0 | 0.00 | 0.00 | 0.00 | 57 | 1013.0 |
| 20260905084542 | 80 | 0 | 0.0 | 0.0 | 0.00 | 0.00 | 0.00 | 56 | 1013.1 |
| 20260905083042 | 81 | 0 | 0.0 | 1.0 | 0.00 | 0.00 | 0.00 | 56 | 1012.9 |
| 20260905081542 | 81 | 0 | 0.0 | 0.0 | 0.00 | 0.00 | 0.00 | 54 | 1012.9 |
| 20260905080053 | 82 | 0 | 0.0 | 1.0 | 0.00 | 0.00 | 0.00 | 54 | 1012.8 |
| 20260905074538 | 82 | 75 | 0.0 | 3.0 | 0.00 | 0.00 | 0.00 | 54 | 1012.8 |
| 20260905073043 | 82 | 0 | 0.0 | 0.0 | 0.00 | 0.00 | 0.00 | 53 | 1013.0 |
| 20260905071542 | 83 | 0 | 0.0 | 1.0 | 0.00 | 0.00 | 0.00 | 51 | 1013.1 |
| 20260905070039 | 84 | 0 | 0.0 | 1.0 | 0.00 | 0.00 | 0.00 | 50 | 1013.1 |
| 20260905064546 | 84 | 88 | 0.0 | 2.0 | 0.00 | 0.00 | 0.00 | 50 | 1013.2 |
| 20260905063053 | 85 | 0 | 0.0 | 4.0 | 0.00 | 0.00 | 0.00 | 49 | 1013.2 |
| 20260905061549 | 85 | 107 | 0.0 | 3.0 | 0.00 | 0.00 | 0.00 | 48 | 1013.2 |
| 20260905060041 | 85 | 0 | 0.0 | 6.0 | 0.00 | 0.00 | 0.00 | 47 | 1013.1 |
| 20260905054540 | 86 | 41 | 1.0 | 6.0 | 0.00 | 0.00 | 0.00 | 46 | 1013.1 |
| 20260905053045 | 86 | 94 | 1.0 | 5.0 | 0.00 | 0.00 | 0.00 | 45 | 1012.8 |
| 20260905051545 | 86 | 324 | 0.0 | 5.0 | 0.00 | 0.00 | 0.00 | 45 | 1012.8 |
| 20260905050046 | 87 | 70 | 1.0 | 3.0 | 0.00 | 0.00 | 0.00 | 44 | 1012.8 |
| 20260905044544 | 87 | 39 | 0.0 | 4.0 | 0.00 | 0.00 | 0.00 | 44 | 1012.8 |
| 20260905043041 | 88 | 24 | 0.0 | 5.0 | 0.00 | 0.00 | 0.00 | 43 | 1012.7 |
| 20260905041538 | 88 | 11 | 1.0 | 7.0 | 0.00 | 0.00 | 0.00 | 42 | 1012.7 |
| 20260905040049 | 89 | 34 | 2.0 | 6.0 | 0.00 | 0.00 | 0.00 | 41 | 1012.8 |
| 20260905034545 | 89 | 46 | 1.0 | 5.0 | 0.00 | 0.00 | 0.00 | 40 | 1012.8 |
| 20260905033041 | 89 | 41 | 0.0 | 3.0 | 0.00 | 0.00 | 0.00 | 38 | 1012.8 |
| 20260905031538 | 89 | 245 | 1.0 | 4.0 | 0.00 | 0.00 | 0.00 | 37 | 1012.6 |
| 20260905030057 | 89 | 18 | 0.0 | 2.0 | 0.00 | 0.00 | 0.00 | 37 | 1012.7 |
| 20260905024541 | 88 | 115 | 0.0 | 2.0 | 0.00 | 0.00 | 0.00 | 39 | 1012.4 |
| 20260905023047 | 89 | 0 | 0.0 | 0.0 | 0.00 | 0.00 | 0.00 | 38 | 1012.3 |
| 20260905021541 | 90 | 0 | 0.0 | 0.0 | 0.00 | 0.00 | 0.00 | 37 | 1011.9 |
| 20260905020057 | 91 | 0 | 0.0 | 1.0 | 0.00 | 0.00 | 0.00 | 36 | 1011.7 |
| 20260905014544 | 92 | 0 | 1.0 | 5.0 | 0.00 | 0.00 | 0.00 | 35 | 1011.4 |
| 20260905013042 | 92 | 235 | 0.0 | 3.0 | 0.00 | 0.00 | 0.00 | 35 | 1011.2 |
| 20260905011541 | 92 | 0 | 1.0 | 7.0 | 0.00 | 0.00 | 0.00 | 35 | 1011.2 |
| 20260905010048 | 93 | 233 | 0.0 | 2.0 | 0.00 | 0.00 | 0.00 | 35 | 1010.9 |
| 20260905004603 | 94 | 244 | 1.0 | 4.0 | 0.00 | 0.00 | 0.00 | 34 | 1010.6 |
| 20260905003038 | 95 | 271 | 1.0 | 4.0 | 0.00 | 0.00 | 0.00 | 31 | 1010.5 |
| 20260905001544 | 96 | 28 | 0.0 | 9.0 | 0.00 | 0.00 | 0.00 | 31 | 1010.4 |
| 20260905000043 | 96 | 37 | 0.0 | 4.0 | 0.00 | 0.00 | 0.00 | 30 | 1010.2 |
| 20260904234542 | 96 | 23 | 1.0 | 5.0 | 0.00 | 0.00 | 0.00 | 28 | 1010.3 |
| 20260904233051 | 97 | 37 | 2.0 | 6.0 | 0.00 | 0.00 | 0.00 | 27 | 1010.3 |
| 20260904231544 | 97 | 30 | 1.0 | 5.0 | 0.00 | 0.00 | 0.00 | 27 | 1010.4 |
| 20260904230043 | 97 | 221 | 0.0 | 5.0 | 0.00 | 0.00 | 0.00 | 27 | 1010.3 |
| 20260904224549 | 97 | 287 | 2.0 | 6.0 | 0.00 | 0.00 | 0.00 | 27 | 1010.6 |
| 20260904223040 | 97 | 46 | 0.0 | 5.0 | 0.00 | 0.00 | 0.00 | 28 | 1010.5 |